Regional Weather Roundup
Issued by NWS Charleston, SC

Current Version | Previous Version | Text Only | Print | Product List | Glossary Off
Versions: 1 2 3 4 5 6 7 8 9 10 11 12 13 14 15 16 17 18 19 20 21 22 23 24 25 26 27 28 29 30 31 32 33 34 35 36 37 38 39 40 41 42 43 44 45 46 47 48 49 50

000
ASUS42 KCHS 011612
RWRCHS

REGIONAL WEATHER ROUNDUP
NATIONAL WEATHER SERVICE CHARLESTON SC
1200 PM EDT SAT AUG 01 2015

NOTE: "FAIR" INDICATES FEW OR NO CLOUDS BELOW 12,000 FEET WITH NO
SIGNIFICANT WEATHER AND/OR OBSTRUCTIONS TO VISIBILITY.

NOT ALL STATIONS ARE QUALITY CONTROLLED BY THE NATIONAL
WEATHER SERVICE. USE DATA WITH CAUTION...ESPECIALLY
DEWPOINT OBSERVATIONS.

SCZ027-030-031-034>040-042>050-011700-
...SOUTHEAST SOUTH CAROLINA...

CITY           SKY/WX    TMP DP  RH WIND       PRES   REMARKS
N CHARLESTON   MOSUNNY   86  74  67 E5        29.94R HX  94
WATERFRONT PRK   N/A     81  78  91 E14       29.91S
MOUNT PLEASANT HVY RAIN  79  77  94 E7        29.95R VSB 3/4
JOHNS ISLAND   PTSUNNY   81  77  89 E12       29.95R FOG
PINOPOLIS      NOT AVBL
MONCKS CORNER  FAIR      86  72  62 CALM      29.94S HX  92
SUMMERVILLE    PTSUNNY   86  77  74 CALM      29.95S HX  97
BEAUFORT MCAS  MOSUNNY   88  73  62 CALM      29.94R HX  96
BEAUFORT ARPT  PTSUNNY   86  77  74 CALM      29.94R HAZE    HX  97
HILTON HEAD IS NOT AVBL
WALTERBORO     PTSUNNY   90  73  58 CALM      29.96R HX  98
ALLENDALE      PTSUNNY   82  75  78 N5        29.95R

...SOUTHERN MIDLANDS AND PEE DEE...

CITY           SKY/WX    TMP DP  RH WIND       PRES   REMARKS
GEORGETOWN     NOT AVBL
KINGSTREE      NOT AVBL
ORANGEBURG     SUNNY     90  70  51 NE8       29.95S HX  95
BARNWELL       FAIR      84  75  74 SE3       29.96F HX  92
AIKEN          FAIR      88  59  37 E9        30.00S
MANNING        RAIN      90  66  45 N9        29.94S HX  92
COLUMBIA       MOSUNNY   92  62  36 NE7       29.95S HX  92
SUMTER         SUNNY     91  62  37 E9        29.94R HX  92
FLORENCE       SUNNY     91  64  40 NE8       29.95S HX  92
MYRTLE BEACH   PTSUNNY   84  73  70 S9        29.97S HX  91
N MYRTLE BEACH MOSUNNY   84  75  74 S8        29.95S HX  92

$$

GAZ063-065-086>088-099>101-113>116-118-119-134>141-150-011700-
...SOUTHEAST GEORGIA...

CITY           SKY/WX    TMP DP  RH WIND       PRES   REMARKS
SAVANNAH ARPT  PTSUNNY   84  74  71 CALM      29.95R HX  91
HUNTER AAF     MOSUNNY   88  78  72 SW3       29.92S HX 101
FORT STEWART   MOSUNNY   84  72  65 N6        29.87S
STATESBORO     MOSUNNY   85  77  76 NE5       29.95S HX  95
SYLVANIA       MOSUNNY   88  76  68 N7        29.96S HX  98
CLAXTON        NOT AVBL

...CSRA...CENTRAL AND FAR SOUTHEAST GEORGIA...

CITY           SKY/WX    TMP DP  RH WIND       PRES   REMARKS
THOMSON        MOSUNNY   89  68  50 E7        30.02R HX  92
AUGUSTA-BUSH   MOSUNNY   87  71  58 VRB5      29.95R HX  93
AUGUSTA-DANIEL PTSUNNY   88  67  49 NE6       29.98R HX  91
SWAINSBORO     FAIR      88  77  70 NE3       29.96S HX 100
VIDALIA        SUNNY     86  73  66 NE5       29.95S HX  93
EASTMAN        FAIR      85  77  76 CALM      29.97S HX  96
HAZLEHURST     PTSUNNY   87  76  69 N6        29.93S HX  97
ALMA           PTSUNNY   82  75  79 E6        29.94S
WAYCROSS       PTSUNNY   86  80  83 E5        29.93F HX 102
JESUP          CLOUDY    82  79  89 CALM      29.96R HX  93
BAXLEY         FAIR      86  77  74 S5        29.94S HX  97
BRUNSWICK      PTSUNNY   82  75  78 CALM      29.95S
SAINT SIMONS   PTSUNNY   82  75  79 S6        29.95R

$$

SCZ027-028-034-036>038-045-046-048>050-GAZ119-141-011700-
...LAKE AND SUPPLEMENTAL COASTAL OBSERVATIONS...

STATION/POSITION TIME  TEMP    WIND        PRES    WAVE   SWELL
                       AIR SEA DIR/SP/G            HT/PER HT/PER/DIR
                 (UTC) (F)     (DEG/KT/KT) (MB)    (FT/S) (FT/S/D)
UPR LAKE MARION  NOT AVBL
WINYAH BAY       1445   80      70/  5     1013.0
LAKE MURRAY      1500   85      30/  2/  5 1014.2R
ACE BASIN NERRS  NOT AVBL
FORT PULASKI     1500   81 85  280/  1/  2 1014.3R
SAPELO ISLAND    1500   83     340/  2     1014.0R

$$

ANZ835-935-AMZ111-154-330-350-352-354-370-450-454-472-011700-
...C-MAN AND BUOY OBSERVATIONS...

STATION/POSITION TIME  TEMP    WIND        PRES    WAVE   SWELL
                       AIR SEA DIR/SP/G            HT/PER HT/PER/DIR
                 (UTC) (F)     (DEG/KT/KT) (MB)    (FT/S) (FT/S/D)
BUOY 41004       1550   77 84  130/ 10/ 14 1013.9F   3/ 6   3/ 6
BUOY 41008       1550   80 83  240/  6/  8 1014.3R   3/ 6   2/150/ 6
FOLLY BEACH CMAN 1600   82     120/  8/  9 1014.3R
CAPERS NEARSHORE 1508   79     160/  8/ 10 1014.0R
FRIPP NEARSHORE  1500   83     240/  4/  6 1013.4S


STATION/POSITION TIME  TEMP    WIND        PRES    WAVE   SWELL
                       AIR SEA DIR/SP/G            HT/PER HT/PER/DIR
                 (UTC) (F)     (DEG/KT/KT) (MB)    (FT/S) (FT/S/D)
5E ST. MARYS GA  1521      83                N/A     3/ 6
FRYING PAN BUOY  1550   80 83  190/  8/ 10 1014.6R   4/ 7   3/160/ 7
BUOY 41025       1550   78 85  170/ 16/ 17 1014.2R   4/ 8   2/170/ 8
CAPE LOOKOUT NC  1500   80     180/  8/  9 1013.6R
BUOY 41002       1550   83 81  220/ 16/ 19 1016.7R   6/ 7   2/140/10
BUOY 41010       1520   78 84  160/ 23/ 27 1017.3R
ST AUGUSTINE FL  1600   86 81  220/ 12/ 17 1014.7S


$$



USA.gov is the U.S. government's official web portal to all federal, state and local government web resources and services.